Weather Roundup
Issued by NWS Chicago, IL

Home | Current Version | Previous Version | Graphics & Text | Print | Product List | Glossary On
Versions: 1 2 3 4 5 6 7 8 9 10 11 12 13 14 15 16 17 18 19 20 21 22 23 24 25 26 27 28 29 30 31 32 33 34 35 36 37 38 39 40 41 42 43 44 45 46 47 48 49 50
000
NZUS59 KLOT 232303
HRRLOT

CHICAGO AREA WEATHER ROUNDUP
NATIONAL WEATHER SERVICE CHICAGO/ROMEOVILLE IL
500 PM CST THU FEB 23 2017

NOTE: "FAIR" INDICATES FEW OR NO CLOUDS BELOW 12,000 FEET WITH NO
SIGNIFICANT WEATHER AND/OR OBSTRUCTIONS TO VISIBILITY.

* THESE STATIONS ARE NOT UNDER NWS QUALITY CONTROL. THEY ALSO MAY NOT
  REPORT WEATHER SUCH AS PRECIPITATION OR FOG.

ILZ005-006-012>014-019>023-240000-
NORTHEAST ILLINOIS

CITY           SKY/WX    TMP DP  RH WIND       PRES   REMARKS
OHARE          LGT RAIN  39  34  82 E12       29.83R
MIDWAY         LGT RAIN  39  34  82 NE17      29.81R
AURORA         LGT RAIN  40  36  86 NE16      29.75S
LANSING*       LGT RAIN  38  38  97 NE12      29.78F
JOLIET*        CLOUDY    41  39  92 NE15      29.76F
WAUKEGAN       CLOUDY    36  33  89 NE14G20   29.82R
DUPAGE AIRPORT LGT RAIN  38  33  82 NE18      29.78R
WHEELING       CLOUDY    37  32  82 NE13G23   29.81F
KANKAKEE*      DRIZZLE   42  38  86 NE16      29.77R
MORRIS*        LGT RAIN  42  38  88 E10G21    29.75S
LEWIS AIRPORT* LGT RAIN  39  38  99 NE24      29.74F
NORTHERLY ISL    N/A     37  34  89 MISG        N/A
$$

WIZ051-052-058>065-066-070>072-240000-
SOUTHEAST WISCONSIN

CITY           SKY/WX    TMP DP  RH WIND       PRES   REMARKS
MILWAUKEE      LGT RAIN  37  31  78 NE20      29.83F
KENOSHA*       LGT RAIN  36  32  85 NE12      29.84R
RACINE*        LGT RAIN  36  31  82 N16G30    29.84F
WAUKESHA       DRIZZLE   34  28  80 NE16G22   29.84F WCI  23
WEST BEND      CLOUDY    34  32  93 NE16      29.85S WCI  23
$$

INZ001>003-010>013-019-020-240000-
NORTHWEST INDIANA

CITY           SKY/WX    TMP DP  RH WIND       PRES   REMARKS
GARY*          LGT RAIN  39  36  87 N9        29.83R
MICHIGAN CITY* NOT AVBL
RENSSELAER*    NOT AVBL
VALPARAISO     LGT RAIN  40  37  89 N12       29.77F FOG
$$

LMZ740>746-240000-
SOUTHERN LAKE MICHIGAN

STATION/POSITION TIME  SKY/WX   TEMP WIND        PRES    VSBY
                                AIR  DIR/SP/G
                 (UTC)          (F)  (DEG/KT/KT) (MB)    (MI)
HARRISON CRIB    2240            37   10/ 14/ 15   N/A
BURNHAM HARBOR   2300            37  360/  9/ 15   N/A
CALUMET HARBOR   2230            37   10/ 12/ 15 1009.1R
BURNS HARBOR     2240            37   40/ 10/ 12 1010.2S
MICHIGAN CITY    2240            36   10/  7/  8   N/A
$$

ABBREVIATIONS USED IN REMARKS
   TC - TEMPERATURE IN CELSIUS
  WCI - WIND CHILL INDEX
   HX - HEAT INDEX
  VSB - VISIBILITY
$$



USA.gov is the U.S. government's official web portal to all federal, state and local government web resources and services.